Lumberton Municipal Airport
KLBT : now visible

Airfield :











YOU CAN JOIN US ON...

 
LOGIN :

Register | Disclaimer

   EN    FR    IT 

 









Legend :    VFR   Marginal VFR   IFR   Intensive IFR   Very Intensive IFR
Visi :
Ceiling :
>= 8 km
>= 3000ft
5 to 8 km
1000 to 3000 ft
1500m to 5 km
500 to 1000 ft
800 to 1500m
200 to 500 ft
< 800m
< 200 ft
Symbols :   Thunderstorms  Fog  Heavy snow  Heavy precipitations  Wind > 20 kt






- Airport Elevation : 126 ft


KLBT - Lumberton Municipal

METAR N/A
TAF KLBT
Valid from the 09 at 18:00 until the 10 at 18:00 UTC


091722Z 0918/1018 18003KT P6SM OVC005
FM091900 19006KT P6SM BKN008
TEMPO 0920/0922 SCT008
FM092200 18005KT P6SM SCT010 BKN250 WS020/21035KT
FM100000 19007KT P6SM BKN250 WS020/22040KT
FM101000 20007KT P6SM BKN008 WS020/23035KT
FM101400 21013KT P6SM BKN250 WS020/22035KT AMD NOT SKED



MET'MAP, your aeronautical weather chart ! - Copyright ORBIFLY December 2007 - Disclaimer

ORBIFLY MET'MAP TEAM :

Programming & Development : Alexandra Zaïnal
Concept & original design : Baudouin d'Aumeries
Assistance for programming : Marc-Olivier Méhu
Technical & hardware support : Manuel Goepfert

Contact : metmap@orbifly.com




SOURCES & CREDITS :

   NOAA       Earth
Advisory